{"data":{"norad_id":62128,"epoch":"2026-09-19T23:53:32.483904Z","epoch_age_seconds":225382,"freshness":"STALE","line1":"1 62128U 24222Q   26262.99551486  .00011054  00000+0  41045-3 0  9993","line2":"2 62128  43.0003 119.0077 0000754 248.4584 111.6188 15.27592846102207","mean_motion":15.27592846,"eccentricity":7.54e-5,"inclination_deg":43.0003,"raan_deg":119.0077,"arg_perigee_deg":248.4584,"mean_anomaly_deg":111.6188,"bstar":0.00041045,"rev_number":10220,"period_min":94.26595599545,"perigee_km":482.49330023253,"apogee_km":483.52796129525,"semimajor_km":6861.1476307639,"source":"CELESTRAK","updated_at":"2026-09-22T09:00:49.526499Z"}}